Location: Paddlesworth
(51.1000°N, 1.1333°E)
Time: 06:37:19
(UTC+00:00)

BREEZE M DEB (TANK) - Pass Details

Date: 11 May 2021
Orbit: 339 x 13618 km, 49.6° (Epoch: 19 June)

Event Time Altitude Azimuth Distance (km) Brightness Sun altitude
Rises 20:32:05 0° 254° (WSW) 2,672 6.8 -8.2°
Reaches altitude 10° 20:33:29 10° 253° (WSW) 2,055 6.2 -8.3°
Maximum altitude 20:37:41 77° 167° (SSE) 1,176 4.3 -8.8°
Drops below altitude 10° 20:53:02 10° 85° (E) 6,921 8.0 -10.5°
Sets 21:02:55 0° 86° (E) 10,181 8.9 -11.5°
